User: anonymous   Login
Location: Unspecified
(0.0000°N, 0.0000°E)
Time: 11:52:31
(UTC+00:00)
Language:

CICERO 6 - Orbit

View from above orbital plane
View from above orbital plane
View from above satellite
View from above satellite

Ground track
Ground track

The orbit data is extracted from the following two-line orbital elements,

1 42793U 17036AE  18347.11842684  .00000863  00000-0  40530-4 0  9992
2 42793  97.3778  43.9520 0010894 162.7074 197.4535 15.22233250 81817
Epoch (UTC): 13 December 2018 02:50:32
Eccentricity: 0.0010894
inclination: 97.3778°
perigee height: 491 km
apogee height: 506 km
right ascension of ascending node: 43.9520°
argument of perigee: 162.7074°
revolutions per day: 15.22233250
mean anomaly at epoch: 197.4535°
orbit number at epoch: 8181

The dashed part of the orbit path shows where the satellite is in the earth's shadow,  

DLR